Tyler, TX (75703)

4:26 PM CDT en Octubre 31, 2014 (GMT -0500)
Old J'ville/S. Robertson | Change Station
CLOSE
Current Station
Estación meteorológica personal
Location: Tyler, TX
Altura: 574 ft
Estaciones meteorológicas cercanas
Aviso en curso: Lake Wind Advisory

Alt 574 ft 32.31 °N, 95.32 °W | Updated 4 seconds ago

Despejado
Despejado
66.0 ° F
Sensación térmica 66.0 ° F
N
5.0
Viento Variable Viento desde Norte
Gusts 11.0 mph

Hoy
Alta -- | Baja -- ° F
--% Posibilidad de precipitaciones
Ayer
Alta -- | Baja -- ° F
Precip. -- pul
7:37 AM 6:31 PM
Cuarto creciente, 59% visible
Presión 30.22 pul
Visibilidad 10.0 Millas
Nubes Despejado
Punto de rocío 45 ° F
Humedad 47%
Precipitaciones 0.00 pul
Espesor de la nieve No disponible.
UV 3 de una escala de 12
Polen 2.70 de una escala de 12
Calidad del aire No disponible.
Flu Activity No disponible.
METAR KTYR 312053Z 01012G19KT 10SM CLR 20/06 A3023 RMK AO2 SLP234 T02000056 55008

More Conditions Fewer Conditions

Presión 30.22 pul
Visibilidad 10.0 Millas
Nubes Despejado
Punto de rocío 45 ° F
Humedad 47%
Precipitaciones 0.00 pul
Espesor de la nieve No disponible.
UV 3 de una escala de 12
Polen 2.70 de una escala de 12
Calidad del aire No disponible.
Flu Activity No disponible.
METAR KTYR 312053Z 01012G19KT 10SM CLR 20/06 A3023 RMK AO2 SLP234 T02000056 55008

More Conditions Fewer Conditions

10-Day Weather Forecast

Almanac

Astronomía

Oct. 31, 2014 Salida Puesta
Hora real
Crepúsculo civil
Crepúsculo náutico
Crepúsculo astronómico
Luna
Horas de luz
Horas de luz
Tomorrow will be .
, % of the Moon is Illuminated

Extremos de hoy

Máximos del estado Bajos del estado

Community

WunderPhotos

Upload Photos

1,766,734 ¡fotos cargadas!

WunderBlogs® & News

Nearby

Calidad del aire

  Calidad del aire Índice AQ Contaminante
Not available.

Grosos de nieve

Estación Profundido Altura

Actividad de terremotos

Ciudad Distance Mag. Tiempo y dato
Magnitud mínima muestra es 2,5.

Temperaturas de aguas costeras

Lugar Temperatura

Estaciones meteorológicas cercanas